Weather Service Report


861 
ASCA42 TJSJ 242211
RWRPR 
PUERTO RICO/U.S. VIRGIN ISLANDS HOURLY WEATHER ROUNDUP
NATIONAL WEATHER SERVICE SAN JUAN PR
600 PM AST MON NOV 24 2014

PRZ001-004-242300-
PUERTO RICO
  
CITY           SKY/WX    TMP DP  RH WIND       PRES   REMARKS
SAN JUAN LMM   MOCLDY    79  75  89 E13       30.01R                  
PONCE          MOCLDY    79  73  83 NE6       29.93                   
AGUADILLA      CLOUDY    79  72  78 E16       30.01R                  
CEIBA          CLOUDY    81  73  78 E8        30.03R                  
$$

PRZ006-007-242300-
U.S. VIRGIN ISLANDS
  
CITY           SKY/WX    TMP DP  RH WIND       PRES   REMARKS
CHRISTIANSTED  PTCLDY    81  72  74 NE13      29.99R                  
$$

HOURLY WEATHER ROUNDUP FOR THE NEWS MEDIA
  
CITY           SKY/WX    TMP DP  RH WIND       PRES   REMARKS
MIAMI          CLOUDY    83  75  77 S12G21    29.98R HX  90           
ORLANDO        PTCLDY    85  68  56 SW10      29.93R                  
NEW YORK       PTCLDY    58  54  86 S18       29.66R                  
NEWARK         PTCLDY    69  53  56 SW22G33   29.63R                  
CHICAGO        LGT SNOW  28  24  85 W21G33    29.53R FOG     WCI  15  
HARTFORD       CLOUDY    62  60  93 SW22G36   29.67R                  
BOSTON         MOCLDY    62  58  86 S20       29.59S                  
DALLAS         PTSUNNY   60  26  27 W7        30.05S                  
PHILADELPHIA   PTCLDY    68  55  63 SW16      29.67R                  

Return to Home page


Western Regional Climate Center, wrcc@dri.edu